Voltar ao catálogo

FENGYUN 1C DEB

AtivoLEO
NORAD 30121·DEBRIS·🇨🇳 China

Lançado May 10, 1999 de Taiyuan Satellite Launch Center

Loading…

Próximas Passagens (próximas 24 horas)

TLE

AtualizadoSource: Space-Track

Época: Sep 14, 2026, 14:46 UTC

1 30121U 99025SA  26257.61545318  .00005992  00000-0  17687-2 0  9993
2 30121 102.1616  39.7686 0030431 159.2370 263.5149 14.43861647 15070

Acompanhe FENGYUN 1C DEB em tempo real com AllMySat

Download on the App Store